Regional Weather Roundup
Issued by NWS Kansas City/Pleasant Hill, MO

Home | Current Version | Previous Version | Graphics & Text | Print | Product List | Glossary Off
Versions: 1 2 3 4 5 6 7 8 9 10 11 12 13 14 15 16 17 18 19 20 21 22 23 24 25 26 27 28 29 30 31 32 33 34 35 36 37 38 39 40 41 42 43 44 45 46 47 48 49 50

000
ASUS43 KEAX 300710
RWREAX

WEATHER ROUNDUP FOR EASTERN KANSAS AND NORTHWEST MISSOURI
NATIONAL WEATHER SERVICE KANSAS CITY/PLEASANT HILL MO
200 AM CDT MON MAY 30 2016

KSZ040-057-103>105-MOZ028-029-037-043-300800-
...KANSAS CITY METROPOLITAN AREA...

CITY           SKY/WX    TMP DP  RH WIND       PRES   REMARKS
K.C. INTL      CLOUDY    65  59  81 S7        30.04F
K.C. DOWNTOWN  CLOUDY    72  60  66 S3        30.03F
LEES SUMMIT    CLEAR     70  61  73 S6        30.05F
OLATHE - IXD   PTCLDY    65  61  87 S5        30.04F
OLATHE - OJC   CLEAR     67  60  78 CALM      30.04F
LAWRENCE       MOCLDY    62  61  96 CALM      30.03F

$$

MOZ001>008-011>017-020>025-030>033-038>040-044>046-053-054-300800-
...NORTHERN AND CENTRAL MISSOURI...

CITY           SKY/WX    TMP DP  RH WIND       PRES   REMARKS
ST. JOSEPH     CLOUDY    68  61  78 CALM      30.02F
MOSBY          CLOUDY    64  64 100 CALM      30.04F
WARRENSBURG    CLEAR     63  61  94 CALM      30.05S
WHITEMAN AFB   CLEAR     67  67 100 S3        30.04F
CLINTON        CLEAR     68  64  88 CALM      30.06F
SEDALIA        PTCLDY    66  62  87 S5        30.07S
WARSAW         NOT AVBL
CHILLICOTHE      N/A     66  63  90 CALM      30.04F
KIRKSVILLE     CLOUDY    68  62  81 SW3       30.05S

$$

MOZ041-047>049-056>058-063>065-088>090-097-300800-
...EASTERN AND SOUTHERN MISSOURI...

CITY           SKY/WX    TMP DP  RH WIND       PRES   REMARKS
ST. LOUIS INTL CLOUDY    72  60  66 CALM      30.06R
SPIRIT OF STL  PTCLDY    65  63  93 CALM      30.05R
COLUMBIA       PTCLDY    69  62  78 S6        30.07R
JEFFERSON CITY CLEAR     65  62  90 CALM      30.06R
ROLLA          CLEAR     64  60  87 SW8       30.07S
SPRINGFIELD    CLEAR     67  62  84 S3        30.07F
JOPLIN         PTCLDY    66  64  93 S3        30.06F
WEST PLAINS    CLEAR     63  59  87 CALM      30.10F

$$

IAZ060-094-KSZ022-034>040-054-083-096-NEZ052-066-093-300800-
...KANSAS...SOUTHEAST NEBRASKA AND IOWA...

CITY           SKY/WX    TMP DP  RH WIND       PRES   REMARKS
TOPEKA         CLOUDY    65  64  97 CALM      30.03F
MANHATTAN      PTCLDY    61  59  93 CALM      30.02F
EMPORIA        CLOUDY    63  62  97 CALM      30.04F
CHANUTE        CLEAR     66  64  93 SE5       30.04F
WICHITA        MOCLDY    67  61  81 E6        30.03F
OMAHA          CLOUDY    71  60  68 S5        29.99F
LINCOLN        CLOUDY    67  59  75 CALM      30.00F
FALLS CITY     CLOUDY    67  64  90 SW5       30.01F
LAMONI         CLOUDY    67  62  84 SW6       30.03F
DES MOINES     CLOUDY    70  59  68 NE5       30.00F

$$




USA.gov is the U.S. government's official web portal to all federal, state and local government web resources and services.